• In Slovakia
  • List of Countries
  • For 7 days
  • Water Temperature
  • Satellite Maps
  • Weather Map
  • Weather Widgets
  • user-avatar
    Login

    Hourly Weather Armawir

    Today, 20 October, Saturday

    Time Temperature Precipitation Wind Pressure Humidity
    00:00 +15°C° 0 mm 1 mps 689 mmHg 49%
    01:00 +15°C° 0.1 mm 1 mps 689 mmHg 49%
    02:00 +14°C° 0.1 mm 1 mps 689 mmHg 50%
    03:00 +14°C° 0 mm 1 mps 689 mmHg 50%
    04:00 +14°C° 0.1 mm 1 mps 689 mmHg 50%
    05:00 +14°C° 0.1 mm 1 mps 689 mmHg 50%
    06:00 +13°C° 0.1 mm 1 mps 689 mmHg 51%
    07:00 +15°C° 0.1 mm 1 mps 689 mmHg 48%
    08:00 +18°C° 0.1 mm 1 mps 689 mmHg 46%
    09:00 +20°C° 0 mm 1 mps 690 mmHg 45%
    10:00 +21°C° 0.1 mm 1 mps 689 mmHg 44%
    11:00 +22°C° 0.1 mm 1 mps 689 mmHg 43%
    12:00 +23°C° 0.1 mm 1 mps 689 mmHg 42%
    13:00 +23°C° 0.2 mm 2 mps 688 mmHg 42%
    14:00 +23°C° 0.2 mm 2 mps 688 mmHg 41%
    15:00 +23°C° 0.2 mm 2 mps 688 mmHg 41%
    16:00 +21°C° 0.3 mm 2 mps 687 mmHg 46%
    17:00 +19°C° 0.3 mm 2 mps 687 mmHg 51%
    18:00 +19°C° 0.3 mm 1 mps 687 mmHg 55%
    19:00 +18°C° 0.3 mm 1 mps 687 mmHg 57%
    20:00 +18°C° 0.3 mm 1 mps 687 mmHg 58%
    21:00 +16°C° 0.3 mm 1 mps 687 mmHg 60%
    22:00 +16°C° 0.2 mm 1 mps 687 mmHg 61%
    23:00 +15°C° 0.2 mm 1 mps 687 mmHg 62%

    Tomorrow, 21 October, Sunday

    Time Temperature Precipitation Wind Pressure Humidity
    00:00 +15°C° 0.2 mm 1 mps 687 mmHg 63%
    01:00 +15°C° 0.1 mm 1 mps 687 mmHg 64%
    02:00 +14°C° 0.1 mm 1 mps 687 mmHg 65%
    03:00 +14°C° 0.1 mm 1 mps 687 mmHg 65%
    04:00 +14°C° 0 mm 1 mps 687 mmHg 67%
    05:00 +14°C° 0 mm 1 mps 687 mmHg 69%
    06:00 +13°C° 0 mm 1 mps 687 mmHg 70%
    07:00 +15°C° 0 mm 1 mps 687 mmHg 64%
    08:00 +18°C° 0 mm 1 mps 688 mmHg 57%
    09:00 +19°C° 0 mm 2 mps 688 mmHg 50%
    10:00 +20°C° 0 mm 2 mps 688 mmHg 47%
    11:00 +21°C° 0 mm 2 mps 688 mmHg 43%
    12:00 +22°C° 0 mm 3 mps 688 mmHg 40%
    13:00 +22°C° 0 mm 3 mps 687 mmHg 39%
    14:00 +22°C° 0 mm 3 mps 687 mmHg 39%
    15:00 +22°C° 0 mm 3 mps 687 mmHg 38%
    16:00 +21°C° 0.1 mm 3 mps 687 mmHg 42%
    17:00 +19°C° 0.1 mm 2 mps 687 mmHg 45%
    18:00 +18°C° 0.1 mm 2 mps 687 mmHg 49%
    19:00 +17°C° 0.1 mm 2 mps 687 mmHg 50%
    20:00 +18°C° 0.1 mm 1 mps 687 mmHg 52%
    21:00 +16°C° 0.1 mm 1 mps 687 mmHg 53%
    22:00 +16°C° 0.1 mm 1 mps 687 mmHg 54%
    23:00 +16°C° 0.1 mm 1 mps 687 mmHg 55%

    Day after tomorrow, 22 October, Monday

    Time Temperature Precipitation Wind Pressure Humidity
    00:00 +15°C° 0.1 mm 1 mps 687 mmHg 56%
    01:00 +15°C° 0.1 mm 1 mps 687 mmHg 57%
    02:00 +15°C° 0.1 mm 1 mps 687 mmHg 59%
    03:00 +14°C° 0.1 mm 1 mps 687 mmHg 60%
    04:00 +14°C° 0.1 mm 1 mps 687 mmHg 62%
    05:00 +14°C° 0.1 mm 1 mps 687 mmHg 64%
    06:00 +14°C° 0.1 mm 1 mps 687 mmHg 66%
    07:00 +15°C° 0.2 mm 1 mps 688 mmHg 62%
    08:00 +16°C° 0.2 mm 1 mps 688 mmHg 58%
    09:00 +19°C° 0.2 mm 1 mps 689 mmHg 54%
    10:00 +20°C° 0.2 mm 1 mps 689 mmHg 52%
    11:00 +19°C° 0.2 mm 2 mps 688 mmHg 50%
    12:00 +20°C° 0.2 mm 2 mps 688 mmHg 49%
    13:00 +20°C° 0.1 mm 2 mps 688 mmHg 48%
    14:00 +21°C° 0.1 mm 2 mps 688 mmHg 47%
    15:00 +21°C° 0.1 mm 2 mps 688 mmHg 46%
    16:00 +20°C° 0.1 mm 2 mps 687 mmHg 51%
    17:00 +19°C° 0.1 mm 1 mps 687 mmHg 55%
    18:00 +18°C° 0.1 mm 1 mps 687 mmHg 60%
    19:00 +16°C° 0.2 mm 1 mps 688 mmHg 62%
    20:00 +16°C° 0.2 mm 1 mps 688 mmHg 63%
    21:00 +16°C° 0.2 mm 1 mps 688 mmHg 64%
    22:00 +15°C° 0.3 mm 1 mps 688 mmHg 65%
    23:00 +15°C° 0.3 mm 1 mps 688 mmHg 66%

    23 October, Tuesday

    Time Temperature Precipitation Wind Pressure Humidity
    00:00 +15°C° 0.3 mm 1 mps 688 mmHg 67%
    01:00 +15°C° 0.1 mm 1 mps 688 mmHg 68%
    02:00 +14°C° 0.1 mm 1 mps 688 mmHg 70%
    03:00 +14°C° 0.1 mm 1 mps 688 mmHg 71%
    04:00 +14°C° 0 mm 1 mps 688 mmHg 71%
    05:00 +14°C° 0 mm 1 mps 688 mmHg 72%
    06:00 +13°C° 0 mm 1 mps 688 mmHg 72%
    07:00 +15°C° 0 mm 1 mps 688 mmHg 65%
    08:00 +17°C° 0 mm 2 mps 689 mmHg 59%
    09:00 +18°C° 0 mm 2 mps 689 mmHg 53%
    10:00 +19°C° 0 mm 2 mps 689 mmHg 50%
    11:00 +20°C° 0 mm 2 mps 689 mmHg 47%
    12:00 +21°C° 0 mm 3 mps 688 mmHg 44%
    13:00 +21°C° 0.2 mm 3 mps 688 mmHg 43%
    14:00 +21°C° 0.2 mm 3 mps 688 mmHg 43%
    15:00 +21°C° 0.2 mm 3 mps 687 mmHg 43%
    16:00 +20°C° 0.2 mm 3 mps 687 mmHg 47%
    17:00 +18°C° 0.2 mm 2 mps 687 mmHg 52%
    18:00 +17°C° 0.2 mm 2 mps 687 mmHg 56%
    19:00 +16°C° 0.1 mm 2 mps 688 mmHg 58%
    20:00 +16°C° 0.1 mm 1 mps 688 mmHg 59%
    21:00 +16°C° 0.1 mm 1 mps 688 mmHg 60%
    22:00 +15°C° 0 mm 1 mps 688 mmHg 61%
    23:00 +15°C° 0 mm 1 mps 688 mmHg 63%

    24 October, Wednesday

    Time Temperature Precipitation Wind Pressure Humidity
    00:00 +14°C° 0 mm 1 mps 687 mmHg 64%
    01:00 +14°C° 0 mm 1 mps 687 mmHg 65%
    02:00 +14°C° 0 mm 1 mps 687 mmHg 65%
    03:00 +14°C° 0 mm 1 mps 687 mmHg 66%
    04:00 +14°C° 0 mm 1 mps 687 mmHg 66%
    05:00 +14°C° 0 mm 2 mps 687 mmHg 66%
    06:00 +14°C° 0 mm 2 mps 687 mmHg 66%
    07:00 +15°C° 0 mm 2 mps 687 mmHg 61%
    08:00 +16°C° 0 mm 2 mps 687 mmHg 56%
    09:00 +18°C° 0 mm 3 mps 687 mmHg 51%
    10:00 +19°C° 0 mm 3 mps 687 mmHg 50%
    11:00 +20°C° 0 mm 3 mps 686 mmHg 48%
    12:00 +20°C° 0 mm 4 mps 686 mmHg 46%
    13:00 +20°C° 0.3 mm 4 mps 685 mmHg 48%
    14:00 +20°C° 0.3 mm 3 mps 685 mmHg 50%
    15:00 +20°C° 0.3 mm 3 mps 684 mmHg 51%
    16:00 +19°C° 0.3 mm 3 mps 684 mmHg 54%
    17:00 +18°C° 0.3 mm 3 mps 684 mmHg 57%
    18:00 +17°C° 0.3 mm 3 mps 684 mmHg 59%
    19:00 +17°C° 0.4 mm 3 mps 684 mmHg 61%
    20:00 +17°C° 0.4 mm 3 mps 684 mmHg 62%
    21:00 +16°C° 0.4 mm 3 mps 683 mmHg 64%
    22:00 +16°C° 0.2 mm 3 mps 683 mmHg 66%
    23:00 +16°C° 0.2 mm 3 mps 682 mmHg 67%

    25 October, Thursday

    Time Temperature Precipitation Wind Pressure Humidity
    00:00 +14°C° 0.2 mm 3 mps 682 mmHg 69%
    01:00 +16°C° 0.4 mm 3 mps 681 mmHg 69%
    02:00 +16°C° 0.4 mm 3 mps 681 mmHg 69%
    03:00 +16°C° 0.4 mm 3 mps 681 mmHg 69%
    04:00 +14°C° 0.9 mm 3 mps 681 mmHg 70%
    05:00 +14°C° 0.9 mm 3 mps 681 mmHg 71%
    06:00 +14°C° 0.9 mm 3 mps 681 mmHg 72%
    07:00 +16°C° 0.1 mm 3 mps 681 mmHg 68%
    08:00 +17°C° 0.1 mm 4 mps 681 mmHg 64%
    09:00 +18°C° 0.1 mm 4 mps 681 mmHg 60%
    10:00 +20°C° 0.1 mm 4 mps 681 mmHg 56%
    11:00 +21°C° 0.1 mm 5 mps 681 mmHg 52%
    12:00 +22°C° 0.1 mm 5 mps 680 mmHg 49%
    13:00 +22°C° 0.4 mm 5 mps 680 mmHg 47%
    14:00 +22°C° 0.4 mm 5 mps 679 mmHg 46%
    15:00 +22°C° 0.4 mm 5 mps 679 mmHg 45%
    16:00 +21°C° 0.4 mm 5 mps 679 mmHg 48%
    17:00 +20°C° 0.4 mm 4 mps 679 mmHg 52%
    18:00 +19°C° 0.4 mm 4 mps 679 mmHg 55%
    19:00 +18°C° 0.3 mm 4 mps 679 mmHg 56%
    20:00 +18°C° 0.3 mm 4 mps 679 mmHg 58%
    21:00 +18°C° 0.3 mm 3 mps 679 mmHg 59%
    22:00 +17°C° 0.2 mm 4 mps 679 mmHg 60%
    23:00 +17°C° 0.2 mm 4 mps 679 mmHg 62%
    Show more